Location: *
(45.1961°N, 1.9694°E)
Time: 20:25:43
(UTC+00:00)

Cosmos 1782 Rocket - Pass Details

Date: 25 August 2019
Orbit: 606 x 633 km, 82.5° (Epoch: 15 September)

Event Time Altitude Azimuth Distance (km) Brightness Sun altitude
Exits shadow 21:00:14 33° 202° (SSW) 1,042 4.5 -21.8°
Maximum altitude 21:02:07 73° 279° (W) 657 3.7 -22.1°
Drops below altitude 10° 21:06:33 10° 5° (N) 1,994 6.7 -22.6°
Sets 21:08:47 0° 7° (N) 2,900 7.5 -22.9°
